Zurück zum Katalog

GSLV R/B

AktivSSO
NORAD 65054·ROCKET BODY·🇮🇳 India

Gestartet Jul 30, 2025 von Satish Dhawan Space Centre

Loading…

Nächste Überflüge (nächste 24 Stunden)

TLE

AktuellSource: Space-Track

Epoche: Sep 14, 2026, 07:06 UTC

1 65054U 25163B   26257.29646490  .00000194  00000-0  64375-4 0  9992
2 65054  98.4329  88.0980 0012703 135.0035 225.2189 14.47886075 59430

Verfolge GSLV R/B in Echtzeit mit AllMySat

Download on the App Store